Tracking 27112 objects as of 26-Mar-2023
HD Live streaming from Space Station
objects crossing your sky now

DELTA 1 R/B

Track DELTA 1 R/B now!
10-day predictions
DELTA 1 R/B is classified as:


NORAD ID: 20323
Int'l Code: 1989-089B
Perigee: 687.2 km
Apogee: 786.3 km
Inclination: 97.1 °
Period: 99.4 minutes
Semi major axis: 7107 km
RCS: 8.9124 m2 (large)
Launch date: November 18, 1989
Source: United States (US)
Launch site: AIR FORCE WESTERN TEST RANGE (AFWTR)

Note: This is a ROCKET BODY
Your satellite tracking list
Your tracking list is empty




NASA's NSSDC Master Catalog

Two Line Element Set (TLE):
1 20323U 89089B   23084.89932586  .00001003  00000-0  26688-3 0  9998
2 20323  97.0671  86.0346 0069689 288.3693  70.9934 14.48785739739283
Source of the keplerian elements: AFSPC